Location: Unspecified
(0.0000°N, 0.0000°E)
Time: 09:40:29
(UTC+00:00)

MIDAS 4 DEB - Pass Details

Date: 14 November 2025
Orbit: 3271 x 3959 km, 95.8° (Epoch: 26 July)

Event Time Altitude Azimuth Distance (km) Brightness Sun altitude
Exits shadow 18:21:34 - 83° (E) 6,916 ? -8.8°
Reaches altitude 10° 18:24:35 10° 92° (E) 6,770 ? -9.5°
Maximum altitude 18:29:21 11° 108° (ESE) 6,724 ? -10.6°
Drops below altitude 10° 18:34:08 10° 123° (ESE) 6,914 ? -11.8°
Sets 18:44:57 0° 152° (SSE) 8,074 ? -14.3°
